Terminal Aerodrome Forecast
Issued by NWS

Home | Current Version | Previous Version | Text Only | Print | Product List | Glossary On
Versions: 1 2 3 4 5 6 7 8 9 10 11 12 13 14 15 16 17 18 19 20 21 22 23 24 25 26 27 28 29 30 31 32 33 34 35 36 37 38 39 40 41 42 43 44 45 46 47 48 49 50
000
FTUS44 KHGX 162326
TAFIAH
TAF
KIAH 162326Z 1700/1806 VRB04KT P6SM VCSH FEW030 SCT050 BKN250
     FM170200 VRB03KT P6SM FEW030 FEW050 BKN250
     FM171600 VRB05KT P6SM VCSH SCT025 SCT250
     FM171900 15008KT P6SM VCTS SCT035CB SCT100 BKN250
     FM180100 17006KT P6SM FEW040 BKN100 BKN250=

USA.gov is the U.S. government's official web portal to all federal, state and local government web resources and services.